 ,�O�C���x[��],����1,�O�C���x[��],����2,���ԉ��x[��],����3,���Ԏ��x[��],����4,�m��2(��󒲎�)���x[��],����5,����[��],����6
2003/1/1 0:00,-1.7 ,0,68,0,25.4 ,0,49.0 ,0,13.7 ,0,,1
2003/1/1 0:15,-1.9 ,2,66,2,24.3 ,2,47.5 ,2,13.7 ,2,,1
2003/1/1 0:30,-2.0 ,0,64,0,23.2 ,0,46.0 ,0,13.7 ,0,,1
2003/1/1 0:45,-2.2 ,2,65,2,23.9 ,2,46.0 ,2,13.7 ,2,,1
2003/1/1 1:00,-2.4 ,0,66,0,24.6 ,0,46.0 ,0,13.6 ,0,,1
2003/1/1 1:15,-2.6 ,2,67,2,24.9 ,2,45.0 ,2,13.6 ,2,,1
2003/1/1 1:30,-2.7 ,0,67,0,25.1 ,0,44.0 ,0,13.6 ,0,,1
2003/1/1 1:45,-2.5 ,2,67,2,24.7 ,2,45.0 ,2,13.6 ,2,,1
2003/1/1 2:00,-2.3 ,0,66,0,24.3 ,0,46.0 ,0,13.6 ,0,,1
2003/1/1 2:15,-2.7 ,2,67,2,23.9 ,2,46.0 ,2,13.7 ,2,,1
2003/1/1 2:30,-3.0 ,0,67,0,23.4 ,0,46.0 ,0,13.7 ,0,,1
2003/1/1 2:45,-3.1 ,2,67,2,23.7 ,2,45.0 ,2,13.8 ,2,,1
2003/1/1 3:00,-3.2 ,0,67,0,24.0 ,0,44.0 ,0,13.8 ,0,,1
2003/1/1 3:15,-3.0 ,2,68,2,23.9 ,2,44.0 ,2,13.9 ,2,,1
2003/1/1 3:30,-2.7 ,0,69,0,23.7 ,0,44.0 ,0,13.9 ,0,,1
2003/1/1 3:45,-3.2 ,2,68,2,18.9 ,2,47.0 ,2,13.9 ,2,,1
2003/1/1 4:00,-3.7 ,0,67,0,14.1 ,0,50.0 ,0,13.9 ,0,,1
2003/1/1 4:15,-3.8 ,2,67,2,13.4 ,2,51.0 ,2,14.0 ,2,,1
2003/1/1 4:30,-3.9 ,0,67,0,12.6 ,0,52.0 ,0,14.0 ,0,,1
2003/1/1 4:45,-3.5 ,2,70,2,12.8 ,2,51.5 ,2,14.1 ,2,,1
2003/1/1 5:00,-3.1 ,0,73,0,13.0 ,0,51.0 ,0,14.1 ,0,,1
2003/1/1 5:15,-3.7 ,2,70,2,12.8 ,2,51.5 ,2,14.1 ,2,,1
2003/1/1 5:30,-4.3 ,0,67,0,12.6 ,0,52.0 ,0,14.1 ,0,,1
2003/1/1 5:45,-3.8 ,2,65,2,10.4 ,2,56.5 ,2,14.2 ,2,,1
2003/1/1 6:00,-3.2 ,0,63,0,8.1 ,0,61.0 ,0,14.2 ,0,,1
2003/1/1 6:15,-3.4 ,2,63,2,9.0 ,2,58.0 ,2,14.2 ,2,,1
2003/1/1 6:30,-3.5 ,0,63,0,9.9 ,0,55.0 ,0,14.2 ,0,,1
2003/1/1 6:45,-3.5 ,2,64,2,10.1 ,2,56.0 ,2,14.2 ,2,,1
2003/1/1 7:00,-3.4 ,0,64,0,10.2 ,0,57.0 ,0,14.2 ,0,,1
2003/1/1 7:15,-3.0 ,2,64,2,13.7 ,2,50.0 ,2,14.2 ,2,,1
2003/1/1 7:30,-2.6 ,0,63,0,17.2 ,0,43.0 ,0,14.2 ,0,,1
2003/1/1 7:45,-3.0 ,2,65,2,14.8 ,2,45.5 ,2,14.3 ,2,,1
2003/1/1 8:00,-3.3 ,0,66,0,12.4 ,0,48.0 ,0,14.3 ,0,,1
2003/1/1 8:15,-2.0 ,2,64,2,12.2 ,2,48.0 ,2,14.4 ,2,,1
2003/1/1 8:30,-0.7 ,0,62,0,12.0 ,0,48.0 ,0,14.5 ,0,,1
2003/1/1 8:45,-0.5 ,2,64,2,11.8 ,2,44.0 ,2,14.4 ,2,,1
2003/1/1 9:00,-0.3 ,0,65,0,11.6 ,0,40.0 ,0,14.2 ,0,,1
2003/1/1 9:15,-1.0 ,2,58,2,7.1 ,2,46.0 ,2,14.1 ,2,,1
2003/1/1 9:30,-1.7 ,0,51,0,2.5 ,0,52.0 ,0,13.9 ,0,,1
2003/1/1 9:45,-1.2 ,2,51,2,2.3 ,2,53.5 ,2,14.3 ,2,,1
2003/1/1 10:00,-0.6 ,0,51,0,2.1 ,0,55.0 ,0,14.6 ,0,,1
2003/1/1 10:15,0.4 ,2,48,2,2.4 ,2,57.5 ,2,14.4 ,2,,1
2003/1/1 10:30,1.4 ,0,45,0,2.6 ,0,60.0 ,0,14.1 ,0,,1
2003/1/1 10:45,4.2 ,2,37,2,10.5 ,2,52.0 ,2,14.6 ,2,,1
2003/1/1 11:00,7.0 ,0,28,0,18.3 ,0,44.0 ,0,15.1 ,0,,1
2003/1/1 11:15,5.5 ,2,32,2,17.3 ,2,44.5 ,2,15.3 ,2,,1
2003/1/1 11:30,3.9 ,0,36,0,16.3 ,0,45.0 ,0,15.5 ,0,,1
2003/1/1 11:45,3.6 ,2,38,2,17.1 ,2,46.0 ,2,15.5 ,2,,1
2003/1/1 12:00,3.2 ,0,39,0,17.8 ,0,47.0 ,0,15.5 ,0,,1
2003/1/1 12:15,3.3 ,2,40,2,17.5 ,2,47.0 ,2,15.4 ,2,,1
2003/1/1 12:30,3.3 ,0,40,0,17.2 ,0,47.0 ,0,15.3 ,0,,1
2003/1/1 12:45,3.3 ,2,40,2,17.2 ,2,47.0 ,2,15.2 ,2,,1
2003/1/1 13:00,3.3 ,0,39,0,17.2 ,0,47.0 ,0,15.1 ,0,,1
2003/1/1 13:15,3.4 ,2,39,2,16.1 ,2,48.0 ,2,15.0 ,2,,1
2003/1/1 13:30,3.5 ,0,38,0,14.9 ,0,49.0 ,0,14.9 ,0,,1
2003/1/1 13:45,2.5 ,2,41,2,15.9 ,2,48.0 ,2,14.8 ,2,,1
2003/1/1 14:00,1.4 ,0,44,0,16.9 ,0,47.0 ,0,14.7 ,0,,1
2003/1/1 14:15,1.1 ,2,47,2,18.6 ,2,45.5 ,2,14.7 ,2,,1
2003/1/1 14:30,0.8 ,0,50,0,20.3 ,0,44.0 ,0,14.6 ,0,,1
2003/1/1 14:45,1.8 ,2,47,2,21.6 ,2,42.5 ,2,14.6 ,2,,1
2003/1/1 15:00,2.8 ,0,43,0,22.9 ,0,41.0 ,0,14.6 ,0,,1
2003/1/1 15:15,3.1 ,2,41,2,20.4 ,2,43.0 ,2,14.7 ,2,,1
2003/1/1 15:30,3.4 ,0,39,0,17.8 ,0,45.0 ,0,14.8 ,0,,1
2003/1/1 15:45,3.4 ,2,39,2,17.5 ,2,45.0 ,2,14.8 ,2,,1
2003/1/1 16:00,3.3 ,0,39,0,17.2 ,0,45.0 ,0,14.8 ,0,,1
2003/1/1 16:15,3.0 ,2,41,2,17.0 ,2,44.5 ,2,14.8 ,2,,1
2003/1/1 16:30,2.6 ,0,42,0,16.8 ,0,44.0 ,0,14.7 ,0,,1
2003/1/1 16:45,2.3 ,2,43,2,16.3 ,2,44.0 ,2,14.6 ,2,,1
2003/1/1 17:00,2.0 ,0,44,0,15.7 ,0,44.0 ,0,14.5 ,0,,1
2003/1/1 17:15,1.7 ,2,45,2,15.8 ,2,43.5 ,2,14.4 ,2,,1
2003/1/1 17:30,1.4 ,0,46,0,15.9 ,0,43.0 ,0,14.3 ,0,,1
2003/1/1 17:45,1.5 ,2,47,2,15.8 ,2,42.5 ,2,14.2 ,2,,1
2003/1/1 18:00,1.5 ,0,48,0,15.6 ,0,42.0 ,0,14.1 ,0,,1
2003/1/1 18:15,1.4 ,2,49,2,15.6 ,2,42.5 ,2,14.1 ,2,,1
2003/1/1 18:30,1.3 ,0,49,0,15.5 ,0,43.0 ,0,14.0 ,0,,1
2003/1/1 18:45,1.0 ,2,50,2,15.5 ,2,42.5 ,2,13.9 ,2,,1
2003/1/1 19:00,0.7 ,0,51,0,15.4 ,0,42.0 ,0,13.8 ,0,,1
2003/1/1 19:15,-0.4 ,2,56,2,15.3 ,2,42.0 ,2,13.8 ,2,,1
2003/1/1 19:30,-1.5 ,0,60,0,15.2 ,0,42.0 ,0,13.7 ,0,,1
2003/1/1 19:45,-1.7 ,2,64,2,18.0 ,2,39.5 ,2,13.7 ,2,,1
2003/1/1 20:00,-1.9 ,0,67,0,20.8 ,0,37.0 ,0,13.7 ,0,,1
2003/1/1 20:15,-2.1 ,2,66,2,21.7 ,2,36.0 ,2,13.8 ,2,,1
2003/1/1 20:30,-2.2 ,0,65,0,22.5 ,0,35.0 ,0,13.8 ,0,,1
2003/1/1 20:45,-2.0 ,2,67,2,22.6 ,2,35.5 ,2,13.7 ,2,,1
2003/1/1 21:00,-1.7 ,0,68,0,22.6 ,0,36.0 ,0,13.6 ,0,,1
2003/1/1 21:15,-1.8 ,2,69,2,21.8 ,2,39.5 ,2,14.1 ,2,,1
2003/1/1 21:30,-1.9 ,0,70,0,21.0 ,0,43.0 ,0,14.6 ,0,,1
2003/1/1 21:45,-2.2 ,2,70,2,21.8 ,2,41.0 ,2,14.9 ,2,,1
2003/1/1 22:00,-2.5 ,0,69,0,22.6 ,0,39.0 ,0,15.1 ,0,,1
2003/1/1 22:15,-2.7 ,2,70,2,22.9 ,2,38.5 ,2,15.0 ,2,,1
2003/1/1 22:30,-2.8 ,0,70,0,23.2 ,0,38.0 ,0,14.9 ,0,,1
2003/1/1 22:45,-2.8 ,2,70,2,23.4 ,2,38.0 ,2,14.9 ,2,,1
2003/1/1 23:00,-2.8 ,0,69,0,23.5 ,0,38.0 ,0,14.9 ,0,,1
2003/1/1 23:15,-2.9 ,2,70,2,23.2 ,2,38.5 ,2,14.9 ,2,,1
2003/1/1 23:30,-2.9 ,0,70,0,22.9 ,0,39.0 ,0,14.9 ,0,,1
2003/1/1 23:45,-2.1 ,2,69,2,21.2 ,2,44.0 ,2,15.1 ,2,,1
2003/1/2 0:00,-1.3 ,0,68,0,19.5 ,0,49.0 ,0,15.3 ,0,,1
2003/1/2 0:15,-1.2 ,2,67,2,19.0 ,2,51.5 ,2,15.2 ,2,,1
2003/1/2 0:30,-1.0 ,0,66,0,18.4 ,0,54.0 ,0,15.1 ,0,,1
2003/1/2 0:45,-0.9 ,2,66,2,18.1 ,2,55.0 ,2,15.1 ,2,,1
2003/1/2 1:00,-0.8 ,0,66,0,17.7 ,0,56.0 ,0,15.0 ,0,,1
2003/1/2 1:15,-0.8 ,2,66,2,17.5 ,2,56.5 ,2,14.9 ,2,,1
2003/1/2 1:30,-0.7 ,0,66,0,17.2 ,0,57.0 ,0,14.8 ,0,,1
2003/1/2 1:45,-0.8 ,2,66,2,17.1 ,2,57.5 ,2,14.8 ,2,,1
2003/1/2 2:00,-0.8 ,0,65,0,16.9 ,0,58.0 ,0,14.7 ,0,,1
2003/1/2 2:15,-0.7 ,2,65,2,16.8 ,2,58.0 ,2,14.7 ,2,,1
2003/1/2 2:30,-0.6 ,0,64,0,16.6 ,0,58.0 ,0,14.7 ,0,,1
2003/1/2 2:45,-0.6 ,2,65,2,16.5 ,2,58.0 ,2,14.7 ,2,,1
2003/1/2 3:00,-0.6 ,0,65,0,16.4 ,0,58.0 ,0,14.6 ,0,,1
2003/1/2 3:15,-0.6 ,2,65,2,16.4 ,2,57.5 ,2,14.6 ,2,,1
2003/1/2 3:30,-0.6 ,0,65,0,16.3 ,0,57.0 ,0,14.5 ,0,,1
2003/1/2 3:45,-0.7 ,2,65,2,16.3 ,2,57.0 ,2,14.5 ,2,,1
2003/1/2 4:00,-0.8 ,0,65,0,16.2 ,0,57.0 ,0,14.4 ,0,,1
2003/1/2 4:15,-0.8 ,2,66,2,16.1 ,2,56.5 ,2,14.4 ,2,,1
2003/1/2 4:30,-0.8 ,0,67,0,15.9 ,0,56.0 ,0,14.4 ,0,,1
2003/1/2 4:45,-0.7 ,2,69,2,15.8 ,2,56.0 ,2,14.4 ,2,,1
2003/1/2 5:00,-0.5 ,0,70,0,15.7 ,0,56.0 ,0,14.3 ,0,,1
2003/1/2 5:15,-0.6 ,2,70,2,15.8 ,2,55.5 ,2,14.3 ,2,,1
2003/1/2 5:30,-0.6 ,0,69,0,15.8 ,0,55.0 ,0,14.3 ,0,,1
2003/1/2 5:45,-0.4 ,2,69,2,15.6 ,2,55.0 ,2,14.3 ,2,,1
2003/1/2 6:00,-0.1 ,0,68,0,15.4 ,0,55.0 ,0,14.2 ,0,,1
2003/1/2 6:15,-0.2 ,2,67,2,15.4 ,2,55.0 ,2,14.2 ,2,,1
2003/1/2 6:30,-0.2 ,0,66,0,15.3 ,0,55.0 ,0,14.2 ,0,,1
2003/1/2 6:45,-0.2 ,2,62,2,15.3 ,2,55.0 ,2,14.2 ,2,,1
2003/1/2 7:00,-0.1 ,0,58,0,15.3 ,0,55.0 ,0,14.1 ,0,,1
2003/1/2 7:15,-1.2 ,2,64,2,16.5 ,2,54.0 ,2,14.1 ,2,,1
2003/1/2 7:30,-2.2 ,0,70,0,17.6 ,0,53.0 ,0,14.1 ,0,,1
2003/1/2 7:45,-2.2 ,2,71,2,18.8 ,2,51.5 ,2,14.4 ,2,,1
2003/1/2 8:00,-2.1 ,0,71,0,20.0 ,0,50.0 ,0,14.6 ,0,,1
2003/1/2 8:15,-2.3 ,2,72,2,20.4 ,2,49.0 ,2,14.7 ,2,,1
2003/1/2 8:30,-2.4 ,0,73,0,20.7 ,0,48.0 ,0,14.7 ,0,,1
2003/1/2 8:45,-2.4 ,2,69,2,20.0 ,2,47.0 ,2,14.7 ,2,,1
2003/1/2 9:00,-2.4 ,0,64,0,19.3 ,0,46.0 ,0,14.6 ,0,,1
2003/1/2 9:15,-2.2 ,2,60,2,20.0 ,2,43.0 ,2,14.7 ,2,,1
2003/1/2 9:30,-1.9 ,0,55,0,20.7 ,0,40.0 ,0,14.7 ,0,,1
2003/1/2 9:45,-1.3 ,2,50,2,21.3 ,2,41.5 ,2,14.6 ,2,,1
2003/1/2 10:00,-0.7 ,0,45,0,21.8 ,0,43.0 ,0,14.5 ,0,,1
2003/1/2 10:15,0.9 ,2,40,2,20.1 ,2,45.5 ,2,15.3 ,2,,1
2003/1/2 10:30,2.4 ,0,35,0,18.4 ,0,48.0 ,0,16.1 ,0,,1
2003/1/2 10:45,3.6 ,2,32,2,17.5 ,2,47.5 ,2,16.2 ,2,,1
2003/1/2 11:00,4.8 ,0,28,0,16.6 ,0,47.0 ,0,16.2 ,0,,1
2003/1/2 11:15,3.4 ,2,30,2,16.4 ,2,46.5 ,2,15.9 ,2,,1
2003/1/2 11:30,1.9 ,0,31,0,16.1 ,0,46.0 ,0,15.6 ,0,,1
2003/1/2 11:45,1.7 ,2,32,2,16.0 ,2,45.5 ,2,15.4 ,2,,1
2003/1/2 12:00,1.4 ,0,32,0,15.9 ,0,45.0 ,0,15.2 ,0,,1
2003/1/2 12:15,1.3 ,2,32,2,15.8 ,2,44.5 ,2,15.0 ,2,,1
2003/1/2 12:30,1.1 ,0,32,0,15.6 ,0,44.0 ,0,14.8 ,0,,1
2003/1/2 12:45,1.0 ,2,35,2,15.5 ,2,43.5 ,2,14.7 ,2,,1
2003/1/2 13:00,0.9 ,0,37,0,15.4 ,0,43.0 ,0,14.6 ,0,,1
2003/1/2 13:15,1.0 ,2,37,2,15.4 ,2,43.0 ,2,14.5 ,2,,1
2003/1/2 13:30,1.0 ,0,36,0,15.3 ,0,43.0 ,0,14.3 ,0,,1
2003/1/2 13:45,1.0 ,2,37,2,15.2 ,2,42.5 ,2,14.2 ,2,,1
2003/1/2 14:00,0.9 ,0,38,0,15.0 ,0,42.0 ,0,14.1 ,0,,1
2003/1/2 14:15,0.0 ,2,40,2,15.6 ,2,42.5 ,2,14.0 ,2,,1
2003/1/2 14:30,-0.9 ,0,42,0,16.2 ,0,43.0 ,0,13.9 ,0,,1
2003/1/2 14:45,-1.3 ,2,46,2,18.2 ,2,42.5 ,2,13.9 ,2,,1
2003/1/2 15:00,-1.7 ,0,49,0,20.1 ,0,42.0 ,0,13.8 ,0,,1
2003/1/2 15:15,-1.9 ,2,53,2,20.4 ,2,41.5 ,2,13.7 ,2,,1
2003/1/2 15:30,-2.0 ,0,57,0,20.6 ,0,41.0 ,0,13.6 ,0,,1
2003/1/2 15:45,-2.0 ,2,58,2,18.7 ,2,42.0 ,2,14.4 ,2,,1
2003/1/2 16:00,-2.0 ,0,59,0,16.8 ,0,43.0 ,0,15.1 ,0,,1
2003/1/2 16:15,-2.4 ,2,59,2,17.3 ,2,44.5 ,2,15.8 ,2,,1
2003/1/2 16:30,-2.7 ,0,58,0,17.7 ,0,46.0 ,0,16.4 ,0,,1
2003/1/2 16:45,-2.9 ,2,58,2,17.6 ,2,46.0 ,2,16.9 ,2,,1
2003/1/2 17:00,-3.0 ,0,57,0,17.4 ,0,46.0 ,0,17.3 ,0,,1
2003/1/2 17:15,-2.3 ,2,54,2,18.0 ,2,44.0 ,2,17.6 ,2,,1
2003/1/2 17:30,-1.6 ,0,50,0,18.6 ,0,42.0 ,0,17.9 ,0,,1
2003/1/2 17:45,-2.1 ,2,51,2,18.9 ,2,42.5 ,2,17.9 ,2,,1
2003/1/2 18:00,-2.5 ,0,51,0,19.2 ,0,43.0 ,0,17.8 ,0,,1
2003/1/2 18:15,-2.6 ,2,52,2,19.8 ,2,42.0 ,2,17.2 ,2,,1
2003/1/2 18:30,-2.6 ,0,52,0,20.3 ,0,41.0 ,0,16.6 ,0,,1
2003/1/2 18:45,-2.8 ,2,53,2,19.9 ,2,40.0 ,2,16.5 ,2,,1
2003/1/2 19:00,-3.0 ,0,54,0,19.5 ,0,39.0 ,0,16.3 ,0,,1
2003/1/2 19:15,-3.0 ,2,55,2,20.0 ,2,41.0 ,2,16.0 ,2,,1
2003/1/2 19:30,-3.0 ,0,56,0,20.5 ,0,43.0 ,0,15.6 ,0,,1
2003/1/2 19:45,-3.0 ,2,55,2,21.0 ,2,43.0 ,2,15.4 ,2,,1
2003/1/2 20:00,-3.0 ,0,53,0,21.4 ,0,43.0 ,0,15.1 ,0,,1
2003/1/2 20:15,-2.9 ,2,54,2,21.4 ,2,43.0 ,2,14.9 ,2,,1
2003/1/2 20:30,-2.8 ,0,55,0,21.4 ,0,43.0 ,0,14.7 ,0,,1
2003/1/2 20:45,-2.8 ,2,57,2,21.2 ,2,42.5 ,2,14.6 ,2,,1
2003/1/2 21:00,-2.8 ,0,59,0,21.0 ,0,42.0 ,0,14.4 ,0,,1
2003/1/2 21:15,-2.8 ,2,57,2,21.2 ,2,39.5 ,2,14.3 ,2,,1
2003/1/2 21:30,-2.8 ,0,54,0,21.3 ,0,37.0 ,0,14.2 ,0,,1
2003/1/2 21:45,-2.8 ,2,54,2,21.5 ,2,38.5 ,2,14.0 ,2,,1
2003/1/2 22:00,-2.7 ,0,53,0,21.7 ,0,40.0 ,0,13.8 ,0,,1
2003/1/2 22:15,-3.4 ,2,57,2,21.9 ,2,41.0 ,2,13.8 ,2,,1
2003/1/2 22:30,-4.0 ,0,61,0,22.0 ,0,42.0 ,0,13.7 ,0,,1
2003/1/2 22:45,-3.9 ,2,63,2,22.0 ,2,40.5 ,2,13.6 ,2,,1
2003/1/2 23:00,-3.7 ,0,64,0,21.9 ,0,39.0 ,0,13.5 ,0,,1
2003/1/2 23:15,-3.8 ,2,62,2,20.9 ,2,40.5 ,2,14.0 ,2,,1
2003/1/2 23:30,-3.8 ,0,59,0,19.8 ,0,42.0 ,0,14.5 ,0,,1
2003/1/2 23:45,-3.8 ,2,60,2,20.1 ,2,42.5 ,2,15.2 ,2,,1
2003/1/3 0:00,-3.8 ,0,61,0,20.4 ,0,43.0 ,0,15.9 ,0,,1
2003/1/3 0:15,-3.9 ,2,61,2,20.0 ,2,41.5 ,2,15.6 ,2,,1
2003/1/3 0:30,-3.9 ,0,61,0,19.6 ,0,40.0 ,0,15.2 ,0,,1
2003/1/3 0:45,-4.3 ,2,62,2,19.9 ,2,41.0 ,2,14.9 ,2,,1
2003/1/3 1:00,-4.6 ,0,62,0,20.2 ,0,42.0 ,0,14.5 ,0,,1
2003/1/3 1:15,-4.3 ,2,63,2,20.3 ,2,39.0 ,2,14.4 ,2,,1
2003/1/3 1:30,-4.0 ,0,64,0,20.3 ,0,36.0 ,0,14.2 ,0,,1
2003/1/3 1:45,-3.9 ,2,62,2,19.6 ,2,37.0 ,2,14.2 ,2,,1
2003/1/3 2:00,-3.7 ,0,60,0,18.9 ,0,38.0 ,0,14.2 ,0,,1
2003/1/3 2:15,-3.6 ,2,59,2,18.7 ,2,41.5 ,2,14.1 ,2,,1
2003/1/3 2:30,-3.5 ,0,58,0,18.4 ,0,45.0 ,0,13.9 ,0,,1
2003/1/3 2:45,-3.6 ,2,59,2,18.1 ,2,44.0 ,2,14.0 ,2,,1
2003/1/3 3:00,-3.6 ,0,59,0,17.7 ,0,43.0 ,0,14.0 ,0,,1
2003/1/3 3:15,-3.7 ,2,60,2,17.6 ,2,42.5 ,2,13.9 ,2,,1
2003/1/3 3:30,-3.7 ,0,60,0,17.4 ,0,42.0 ,0,13.8 ,0,,1
2003/1/3 3:45,-3.8 ,2,60,2,17.2 ,2,41.5 ,2,13.8 ,2,,1
2003/1/3 4:00,-3.9 ,0,59,0,17.0 ,0,41.0 ,0,13.7 ,0,,1
2003/1/3 4:15,-4.0 ,2,59,2,16.9 ,2,40.0 ,2,13.7 ,2,,1
2003/1/3 4:30,-4.1 ,0,59,0,16.7 ,0,39.0 ,0,13.6 ,0,,1
2003/1/3 4:45,-4.0 ,2,59,2,16.6 ,2,38.5 ,2,13.6 ,2,,1
2003/1/3 5:00,-3.9 ,0,59,0,16.4 ,0,38.0 ,0,13.5 ,0,,1
2003/1/3 5:15,-4.0 ,2,60,2,16.3 ,2,37.5 ,2,13.5 ,2,,1
2003/1/3 5:30,-4.0 ,0,61,0,16.2 ,0,37.0 ,0,13.4 ,0,,1
2003/1/3 5:45,-4.1 ,2,61,2,16.1 ,2,37.0 ,2,13.4 ,2,,1
2003/1/3 6:00,-4.2 ,0,60,0,16.0 ,0,37.0 ,0,13.3 ,0,,1
2003/1/3 6:15,-4.3 ,2,60,2,15.9 ,2,36.5 ,2,13.3 ,2,,1
2003/1/3 6:30,-4.3 ,0,60,0,15.8 ,0,36.0 ,0,13.2 ,0,,1
2003/1/3 6:45,-4.3 ,2,60,2,15.7 ,2,36.0 ,2,13.2 ,2,,1
2003/1/3 7:00,-4.2 ,0,60,0,15.6 ,0,36.0 ,0,13.1 ,0,,1
2003/1/3 7:15,-3.7 ,2,60,2,15.6 ,2,37.0 ,2,13.1 ,2,,1
2003/1/3 7:30,-3.2 ,0,59,0,15.6 ,0,38.0 ,0,13.1 ,0,,1
2003/1/3 7:45,-2.6 ,2,56,2,15.7 ,2,38.5 ,2,13.1 ,2,,1
2003/1/3 8:00,-2.0 ,0,53,0,15.8 ,0,39.0 ,0,13.1 ,0,,1
2003/1/3 8:15,-0.4 ,2,49,2,15.9 ,2,39.0 ,2,13.1 ,2,,1
2003/1/3 8:30,1.2 ,0,45,0,16.0 ,0,39.0 ,0,13.1 ,0,,1
2003/1/3 8:45,0.5 ,2,48,2,14.9 ,2,33.0 ,2,13.3 ,2,,1
2003/1/3 9:00,-0.3 ,0,50,0,13.8 ,0,27.0 ,0,13.5 ,0,,1
2003/1/3 9:15,-0.3 ,2,50,2,14.9 ,2,33.5 ,2,13.7 ,2,,1
2003/1/3 9:30,-0.2 ,0,50,0,15.9 ,0,40.0 ,0,13.8 ,0,,1
2003/1/3 9:45,-0.2 ,2,49,2,16.3 ,2,41.0 ,2,14.0 ,2,,1
2003/1/3 10:00,-0.1 ,0,47,0,16.6 ,0,42.0 ,0,14.1 ,0,,1
2003/1/3 10:15,1.0 ,2,43,2,16.9 ,2,47.5 ,2,14.2 ,2,,1
2003/1/3 10:30,2.1 ,0,39,0,17.1 ,0,53.0 ,0,14.2 ,0,,1
2003/1/3 10:45,3.3 ,2,35,2,16.9 ,2,53.5 ,2,14.4 ,2,,1
2003/1/3 11:00,4.4 ,0,31,0,16.6 ,0,54.0 ,0,14.6 ,0,,1
2003/1/3 11:15,3.6 ,2,32,2,16.3 ,2,55.0 ,2,14.7 ,2,,1
2003/1/3 11:30,2.8 ,0,32,0,16.0 ,0,56.0 ,0,14.8 ,0,,1
2003/1/3 11:45,2.9 ,2,32,2,15.9 ,2,56.0 ,2,14.7 ,2,,1
2003/1/3 12:00,3.0 ,0,31,0,15.7 ,0,56.0 ,0,14.6 ,0,,1
2003/1/3 12:15,3.0 ,2,31,2,15.6 ,2,56.0 ,2,14.5 ,2,,1
2003/1/3 12:30,3.0 ,0,30,0,15.5 ,0,56.0 ,0,14.3 ,0,,1
2003/1/3 12:45,3.1 ,2,31,2,15.5 ,2,56.5 ,2,14.2 ,2,,1
2003/1/3 13:00,3.1 ,0,31,0,15.4 ,0,57.0 ,0,14.1 ,0,,1
2003/1/3 13:15,3.1 ,2,31,2,15.3 ,2,57.5 ,2,14.0 ,2,,1
2003/1/3 13:30,3.1 ,0,31,0,15.2 ,0,58.0 ,0,13.9 ,0,,1
2003/1/3 13:45,3.2 ,2,32,2,15.2 ,2,58.0 ,2,13.8 ,2,,1
2003/1/3 14:00,3.3 ,0,32,0,15.1 ,0,58.0 ,0,13.7 ,0,,1
2003/1/3 14:15,3.4 ,2,33,2,15.0 ,2,58.0 ,2,13.6 ,2,,1
2003/1/3 14:30,3.5 ,0,34,0,14.9 ,0,58.0 ,0,13.5 ,0,,1
2003/1/3 14:45,3.5 ,2,36,2,14.9 ,2,57.5 ,2,13.4 ,2,,1
2003/1/3 15:00,3.4 ,0,37,0,14.8 ,0,57.0 ,0,13.3 ,0,,1
2003/1/3 15:15,3.4 ,2,38,2,14.8 ,2,57.0 ,2,13.3 ,2,,1
2003/1/3 15:30,3.3 ,0,39,0,14.7 ,0,57.0 ,0,13.2 ,0,,1
2003/1/3 15:45,3.3 ,2,40,2,14.7 ,2,56.5 ,2,13.1 ,2,,1
2003/1/3 16:00,3.3 ,0,41,0,14.6 ,0,56.0 ,0,13.0 ,0,,1
2003/1/3 16:15,3.3 ,2,41,2,14.5 ,2,56.0 ,2,13.0 ,2,,1
2003/1/3 16:30,3.2 ,0,41,0,14.4 ,0,56.0 ,0,12.9 ,0,,1
2003/1/3 16:45,3.2 ,2,41,2,14.4 ,2,55.5 ,2,12.9 ,2,,1
2003/1/3 17:00,3.2 ,0,41,0,14.4 ,0,55.0 ,0,12.8 ,0,,1
2003/1/3 17:15,3.1 ,2,43,2,14.4 ,2,55.0 ,2,12.8 ,2,,1
2003/1/3 17:30,3.0 ,0,45,0,14.3 ,0,55.0 ,0,12.7 ,0,,1
2003/1/3 17:45,2.7 ,2,52,2,14.3 ,2,54.5 ,2,12.6 ,2,,1
2003/1/3 18:00,2.3 ,0,58,0,14.2 ,0,54.0 ,0,12.5 ,0,,1
2003/1/3 18:15,2.1 ,2,62,2,14.2 ,2,54.0 ,2,12.5 ,2,,1
2003/1/3 18:30,1.8 ,0,65,0,14.1 ,0,54.0 ,0,12.4 ,0,,1
2003/1/3 18:45,1.8 ,2,66,2,14.1 ,2,53.5 ,2,12.4 ,2,,1
2003/1/3 19:00,1.8 ,0,66,0,14.0 ,0,53.0 ,0,12.3 ,0,,1
2003/1/3 19:15,1.9 ,2,67,2,14.0 ,2,53.0 ,2,12.3 ,2,,1
2003/1/3 19:30,1.9 ,0,67,0,13.9 ,0,53.0 ,0,12.2 ,0,,1
2003/1/3 19:45,1.9 ,2,70,2,13.9 ,2,53.0 ,2,12.2 ,2,,1
2003/1/3 20:00,1.8 ,0,72,0,13.8 ,0,53.0 ,0,12.2 ,0,,1
2003/1/3 20:15,1.7 ,2,73,2,13.8 ,2,53.0 ,2,12.2 ,2,,1
2003/1/3 20:30,1.6 ,0,74,0,13.8 ,0,53.0 ,0,12.1 ,0,,1
2003/1/3 20:45,1.7 ,2,77,2,13.8 ,2,52.5 ,2,12.1 ,2,,1
2003/1/3 21:00,1.7 ,0,80,0,13.7 ,0,52.0 ,0,12.0 ,0,,1
2003/1/3 21:15,1.6 ,2,82,2,13.7 ,2,52.0 ,2,12.0 ,2,,1
2003/1/3 21:30,1.5 ,0,83,0,13.7 ,0,52.0 ,0,11.9 ,0,,1
2003/1/3 21:45,1.4 ,2,84,2,13.7 ,2,52.0 ,2,11.9 ,2,,1
2003/1/3 22:00,1.3 ,0,84,0,13.7 ,0,52.0 ,0,11.9 ,0,,1
2003/1/3 22:15,1.4 ,2,85,2,13.7 ,2,51.5 ,2,11.9 ,2,,1
2003/1/3 22:30,1.4 ,0,85,0,13.6 ,0,51.0 ,0,11.8 ,0,,1
2003/1/3 22:45,1.4 ,2,86,2,13.6 ,2,51.0 ,2,11.8 ,2,,1
2003/1/3 23:00,1.3 ,0,86,0,13.6 ,0,51.0 ,0,11.7 ,0,,1
2003/1/3 23:15,1.3 ,2,87,2,13.5 ,2,51.0 ,2,11.7 ,2,,1
2003/1/3 23:30,1.2 ,0,87,0,13.4 ,0,51.0 ,0,11.7 ,0,,1
2003/1/3 23:45,1.2 ,2,89,2,13.4 ,2,51.0 ,2,11.7 ,2,,1
2003/1/4 0:00,1.2 ,0,90,0,13.4 ,0,51.0 ,0,11.6 ,0,,1
2003/1/4 0:15,1.2 ,2,91,2,13.4 ,2,50.5 ,2,11.6 ,2,,1
2003/1/4 0:30,1.2 ,0,91,0,13.4 ,0,50.0 ,0,11.5 ,0,,1
2003/1/4 0:45,1.2 ,2,91,2,13.4 ,2,50.0 ,2,11.5 ,2,,1
2003/1/4 1:00,1.2 ,0,91,0,13.3 ,0,50.0 ,0,11.5 ,0,,1
2003/1/4 1:15,1.2 ,2,91,2,13.3 ,2,50.0 ,2,11.5 ,2,,1
2003/1/4 1:30,1.1 ,0,91,0,13.3 ,0,50.0 ,0,11.4 ,0,,1
2003/1/4 1:45,1.1 ,2,92,2,13.3 ,2,50.0 ,2,11.4 ,2,,1
2003/1/4 2:00,1.0 ,0,92,0,13.2 ,0,50.0 ,0,11.4 ,0,,1
2003/1/4 2:15,1.1 ,2,92,2,13.3 ,2,49.5 ,2,11.4 ,2,,1
2003/1/4 2:30,1.1 ,0,92,0,13.3 ,0,49.0 ,0,11.3 ,0,,1
2003/1/4 2:45,1.1 ,2,92,2,13.2 ,2,49.0 ,2,11.3 ,2,,1
2003/1/4 3:00,1.0 ,0,92,0,13.1 ,0,49.0 ,0,11.3 ,0,,1
2003/1/4 3:15,1.0 ,2,93,2,13.1 ,2,49.0 ,2,11.3 ,2,,1
2003/1/4 3:30,0.9 ,0,93,0,13.0 ,0,49.0 ,0,11.2 ,0,,1
2003/1/4 3:45,0.9 ,2,94,2,13.0 ,2,49.0 ,2,11.2 ,2,,1
2003/1/4 4:00,0.9 ,0,94,0,13.0 ,0,49.0 ,0,11.2 ,0,,1
2003/1/4 4:15,1.0 ,2,95,2,13.0 ,2,49.0 ,2,11.2 ,2,,1
2003/1/4 4:30,1.1 ,0,96,0,13.0 ,0,49.0 ,0,11.1 ,0,,1
2003/1/4 4:45,1.2 ,2,97,2,13.0 ,2,49.0 ,2,11.1 ,2,,1
2003/1/4 5:00,1.3 ,0,97,0,12.9 ,0,49.0 ,0,11.1 ,0,,1
2003/1/4 5:15,1.3 ,2,98,2,12.9 ,2,49.0 ,2,11.1 ,2,,1
2003/1/4 5:30,1.2 ,0,98,0,12.8 ,0,49.0 ,0,11.0 ,0,,1
2003/1/4 5:45,1.2 ,2,98,2,12.8 ,2,49.0 ,2,11.0 ,2,,1
2003/1/4 6:00,1.2 ,0,98,0,12.8 ,0,49.0 ,0,11.0 ,0,,1
2003/1/4 6:15,1.1 ,2,98,2,12.8 ,2,49.0 ,2,11.0 ,2,,1
2003/1/4 6:30,0.9 ,0,98,0,12.8 ,0,49.0 ,0,11.0 ,0,,1
2003/1/4 6:45,1.1 ,2,99,2,12.8 ,2,48.5 ,2,11.0 ,2,,1
2003/1/4 7:00,1.3 ,0,99,0,12.8 ,0,48.0 ,0,10.9 ,0,,1
2003/1/4 7:15,1.9 ,2,97,2,12.8 ,2,48.5 ,2,10.9 ,2,,1
2003/1/4 7:30,2.4 ,0,94,0,12.8 ,0,49.0 ,0,10.9 ,0,,1
2003/1/4 7:45,3.7 ,2,81,2,12.8 ,2,49.0 ,2,10.9 ,2,,1
2003/1/4 8:00,4.9 ,0,68,0,12.8 ,0,49.0 ,0,10.9 ,0,,1
2003/1/4 8:15,6.3 ,2,61,2,12.8 ,2,49.0 ,2,10.9 ,2,,1
2003/1/4 8:30,7.7 ,0,53,0,12.8 ,0,49.0 ,0,10.9 ,0,,1
2003/1/4 8:45,7.3 ,2,52,2,12.9 ,2,49.0 ,2,11.0 ,2,,1
2003/1/4 9:00,6.9 ,0,50,0,12.9 ,0,49.0 ,0,11.0 ,0,,1
2003/1/4 9:15,6.9 ,2,48,2,12.9 ,2,48.5 ,2,11.1 ,2,,1
2003/1/4 9:30,6.9 ,0,46,0,12.9 ,0,48.0 ,0,11.1 ,0,,1
2003/1/4 9:45,6.9 ,2,48,2,12.9 ,2,47.5 ,2,11.1 ,2,,1
2003/1/4 10:00,6.9 ,0,50,0,12.8 ,0,47.0 ,0,11.1 ,0,,1
2003/1/4 10:15,8.0 ,2,42,2,12.8 ,2,47.0 ,2,11.1 ,2,,1
2003/1/4 10:30,9.0 ,0,34,0,12.8 ,0,47.0 ,0,11.1 ,0,,1
2003/1/4 10:45,10.3 ,2,31,2,12.9 ,2,46.5 ,2,11.1 ,2,,1
2003/1/4 11:00,11.6 ,0,27,0,12.9 ,0,46.0 ,0,11.1 ,0,,1
2003/1/4 11:15,10.1 ,2,30,2,12.9 ,2,46.0 ,2,11.1 ,2,,1
2003/1/4 11:30,8.5 ,0,33,0,12.8 ,0,46.0 ,0,11.1 ,0,,1
2003/1/4 11:45,8.2 ,2,38,2,12.9 ,2,46.0 ,2,11.1 ,2,,1
2003/1/4 12:00,7.9 ,0,42,0,12.9 ,0,46.0 ,0,11.1 ,0,,1
2003/1/4 12:15,7.7 ,2,43,2,12.9 ,2,46.0 ,2,11.1 ,2,,1
2003/1/4 12:30,7.4 ,0,43,0,12.9 ,0,46.0 ,0,11.1 ,0,,1
2003/1/4 12:45,7.3 ,2,42,2,12.9 ,2,45.5 ,2,11.1 ,2,,1
2003/1/4 13:00,7.2 ,0,41,0,12.9 ,0,45.0 ,0,11.1 ,0,,1
2003/1/4 13:15,7.2 ,2,41,2,12.9 ,2,45.0 ,2,11.1 ,2,,1
2003/1/4 13:30,7.2 ,0,40,0,12.9 ,0,45.0 ,0,11.1 ,0,,1
2003/1/4 13:45,7.2 ,2,40,2,12.9 ,2,44.5 ,2,11.1 ,2,,1
2003/1/4 14:00,7.1 ,0,40,0,12.9 ,0,44.0 ,0,11.1 ,0,,1
2003/1/4 14:15,7.0 ,2,40,2,12.9 ,2,44.0 ,2,11.1 ,2,,1
2003/1/4 14:30,6.9 ,0,40,0,12.8 ,0,44.0 ,0,11.1 ,0,,1
2003/1/4 14:45,6.7 ,2,41,2,12.8 ,2,44.0 ,2,11.1 ,2,,1
2003/1/4 15:00,6.4 ,0,41,0,12.8 ,0,44.0 ,0,11.1 ,0,,1
2003/1/4 15:15,6.2 ,2,39,2,12.8 ,2,43.5 ,2,11.1 ,2,,1
2003/1/4 15:30,6.0 ,0,37,0,12.8 ,0,43.0 ,0,11.0 ,0,,1
2003/1/4 15:45,5.8 ,2,38,2,12.8 ,2,42.5 ,2,11.0 ,2,,1
2003/1/4 16:00,5.6 ,0,38,0,12.8 ,0,42.0 ,0,11.0 ,0,,1
2003/1/4 16:15,5.5 ,2,41,2,12.8 ,2,42.0 ,2,11.0 ,2,,1
2003/1/4 16:30,5.3 ,0,44,0,12.7 ,0,42.0 ,0,11.0 ,0,,1
2003/1/4 16:45,5.2 ,2,44,2,12.7 ,2,42.0 ,2,11.0 ,2,,1
2003/1/4 17:00,5.1 ,0,44,0,12.7 ,0,42.0 ,0,10.9 ,0,,1
2003/1/4 17:15,4.9 ,2,44,2,12.7 ,2,41.5 ,2,10.9 ,2,,1
2003/1/4 17:30,4.7 ,0,44,0,12.7 ,0,41.0 ,0,10.9 ,0,,1
2003/1/4 17:45,4.6 ,2,46,2,12.7 ,2,41.0 ,2,10.9 ,2,,1
2003/1/4 18:00,4.4 ,0,48,0,12.6 ,0,41.0 ,0,10.8 ,0,,1
2003/1/4 18:15,3.1 ,2,55,2,13.0 ,2,46.5 ,2,10.8 ,2,,1
2003/1/4 18:30,1.8 ,0,62,0,13.3 ,0,52.0 ,0,10.8 ,0,,1
2003/1/4 18:45,1.4 ,2,67,2,10.9 ,2,54.5 ,2,10.9 ,2,,1
2003/1/4 19:00,1.0 ,0,71,0,8.5 ,0,57.0 ,0,10.9 ,0,,1
2003/1/4 19:15,1.0 ,2,75,2,12.9 ,2,53.0 ,2,11.0 ,2,,1
2003/1/4 19:30,0.9 ,0,78,0,17.2 ,0,49.0 ,0,11.1 ,0,,1
2003/1/4 19:45,0.8 ,2,79,2,17.6 ,2,53.5 ,2,11.1 ,2,,1
2003/1/4 20:00,0.7 ,0,79,0,17.9 ,0,58.0 ,0,11.1 ,0,,1
2003/1/4 20:15,0.7 ,2,79,2,18.1 ,2,60.5 ,2,11.5 ,2,,1
2003/1/4 20:30,0.7 ,0,79,0,18.3 ,0,63.0 ,0,11.9 ,0,,1
2003/1/4 20:45,0.4 ,2,81,2,18.6 ,2,65.5 ,2,11.8 ,2,,1
2003/1/4 21:00,0.0 ,0,83,0,18.9 ,0,68.0 ,0,11.7 ,0,,1
2003/1/4 21:15,0.6 ,2,78,2,19.1 ,2,67.5 ,2,11.7 ,2,,1
2003/1/4 21:30,1.1 ,0,73,0,19.3 ,0,67.0 ,0,11.7 ,0,,1
2003/1/4 21:45,1.4 ,2,76,2,17.7 ,2,60.0 ,2,12.4 ,2,,1
2003/1/4 22:00,1.6 ,0,78,0,16.0 ,0,53.0 ,0,13.1 ,0,,1
2003/1/4 22:15,1.6 ,2,78,2,15.8 ,2,56.0 ,2,13.1 ,2,,1
2003/1/4 22:30,1.6 ,0,77,0,15.5 ,0,59.0 ,0,13.1 ,0,,1
2003/1/4 22:45,1.6 ,2,74,2,15.5 ,2,59.0 ,2,13.0 ,2,,1
2003/1/4 23:00,1.5 ,0,71,0,15.5 ,0,59.0 ,0,12.9 ,0,,1
2003/1/4 23:15,1.4 ,2,76,2,15.1 ,2,59.0 ,2,12.9 ,2,,1
2003/1/4 23:30,1.2 ,0,80,0,14.7 ,0,59.0 ,0,12.9 ,0,,1
2003/1/4 23:45,1.2 ,2,82,2,14.8 ,2,58.0 ,2,12.9 ,2,,1
2003/1/5 0:00,1.1 ,0,83,0,14.9 ,0,57.0 ,0,12.9 ,0,,1
2003/1/5 0:15,1.0 ,2,84,2,12.6 ,2,62.0 ,2,12.9 ,2,,1
2003/1/5 0:30,0.9 ,0,84,0,10.2 ,0,67.0 ,0,12.9 ,0,,1
2003/1/5 0:45,0.6 ,2,83,2,12.4 ,2,61.5 ,2,12.9 ,2,,1
2003/1/5 1:00,0.3 ,0,82,0,14.6 ,0,56.0 ,0,12.9 ,0,,1
2003/1/5 1:15,0.4 ,2,82,2,14.5 ,2,56.0 ,2,12.9 ,2,,1
2003/1/5 1:30,0.5 ,0,82,0,14.4 ,0,56.0 ,0,12.9 ,0,,1
2003/1/5 1:45,0.5 ,2,84,2,14.4 ,2,55.5 ,2,12.9 ,2,,1
2003/1/5 2:00,0.4 ,0,85,0,14.3 ,0,55.0 ,0,12.8 ,0,,1
2003/1/5 2:15,0.1 ,2,83,2,14.2 ,2,54.5 ,2,12.8 ,2,,1
2003/1/5 2:30,-0.3 ,0,80,0,14.0 ,0,54.0 ,0,12.8 ,0,,1
2003/1/5 2:45,-0.2 ,2,78,2,11.7 ,2,55.5 ,2,12.8 ,2,,1
2003/1/5 3:00,0.0 ,0,76,0,9.3 ,0,57.0 ,0,12.7 ,0,,1
2003/1/5 3:15,-0.1 ,2,75,2,9.0 ,2,57.0 ,2,12.7 ,2,,1
2003/1/5 3:30,-0.1 ,0,74,0,8.7 ,0,57.0 ,0,12.7 ,0,,1
2003/1/5 3:45,-0.3 ,2,73,2,8.7 ,2,56.0 ,2,12.7 ,2,,1
2003/1/5 4:00,-0.4 ,0,72,0,8.6 ,0,55.0 ,0,12.6 ,0,,1
2003/1/5 4:15,-0.2 ,2,67,2,11.1 ,2,53.0 ,2,12.6 ,2,,1
2003/1/5 4:30,0.1 ,0,62,0,13.5 ,0,51.0 ,0,12.6 ,0,,1
2003/1/5 4:45,0.1 ,2,61,2,13.6 ,2,50.5 ,2,12.6 ,2,,1
2003/1/5 5:00,0.0 ,0,60,0,13.7 ,0,50.0 ,0,12.5 ,0,,1
2003/1/5 5:15,-0.2 ,2,60,2,13.7 ,2,49.5 ,2,12.5 ,2,,1
2003/1/5 5:30,-0.3 ,0,60,0,13.7 ,0,49.0 ,0,12.5 ,0,,1
2003/1/5 5:45,-0.3 ,2,58,2,13.6 ,2,49.0 ,2,12.5 ,2,,1
2003/1/5 6:00,-0.2 ,0,56,0,13.5 ,0,49.0 ,0,12.5 ,0,,1
2003/1/5 6:15,-0.4 ,2,58,2,13.5 ,2,48.0 ,2,12.5 ,2,,1
2003/1/5 6:30,-0.5 ,0,60,0,13.4 ,0,47.0 ,0,12.5 ,0,,1
2003/1/5 6:45,-0.4 ,2,59,2,11.2 ,2,48.5 ,2,12.5 ,2,,1
2003/1/5 7:00,-0.3 ,0,58,0,8.9 ,0,50.0 ,0,12.4 ,0,,1
2003/1/5 7:15,0.1 ,2,59,2,8.8 ,2,51.0 ,2,12.4 ,2,,1
2003/1/5 7:30,0.5 ,0,59,0,8.6 ,0,52.0 ,0,12.4 ,0,,1
2003/1/5 7:45,0.4 ,2,61,2,8.7 ,2,51.5 ,2,12.4 ,2,,1
2003/1/5 8:00,0.2 ,0,62,0,8.7 ,0,51.0 ,0,12.4 ,0,,1
2003/1/5 8:15,-0.9 ,2,68,2,9.2 ,2,51.0 ,2,12.4 ,2,,1
2003/1/5 8:30,-1.9 ,0,73,0,9.7 ,0,51.0 ,0,12.4 ,0,,1
2003/1/5 8:45,-1.7 ,2,74,2,10.8 ,2,52.5 ,2,12.6 ,2,,1
2003/1/5 9:00,-1.4 ,0,74,0,11.8 ,0,54.0 ,0,12.7 ,0,,1
2003/1/5 9:15,-1.0 ,2,72,2,14.8 ,2,49.5 ,2,12.7 ,2,,1
2003/1/5 9:30,-0.6 ,0,69,0,17.8 ,0,45.0 ,0,12.7 ,0,,1
2003/1/5 9:45,-1.0 ,2,71,2,17.8 ,2,50.0 ,2,12.7 ,2,,1
2003/1/5 10:00,-1.3 ,0,73,0,17.7 ,0,55.0 ,0,12.7 ,0,,1
2003/1/5 10:15,-1.2 ,2,73,2,18.0 ,2,58.0 ,2,12.8 ,2,,1
2003/1/5 10:30,-1.1 ,0,73,0,18.2 ,0,61.0 ,0,12.8 ,0,,1
2003/1/5 10:45,-1.0 ,2,75,2,19.6 ,2,61.0 ,2,13.0 ,2,,1
2003/1/5 11:00,-0.8 ,0,76,0,21.0 ,0,61.0 ,0,13.1 ,0,,1
2003/1/5 11:15,-0.9 ,2,74,2,20.3 ,2,64.5 ,2,13.4 ,2,,1
2003/1/5 11:30,-1.0 ,0,72,0,19.5 ,0,68.0 ,0,13.7 ,0,,1
2003/1/5 11:45,-1.2 ,2,74,2,19.8 ,2,70.5 ,2,13.7 ,2,,1
2003/1/5 12:00,-1.4 ,0,76,0,20.0 ,0,73.0 ,0,13.6 ,0,,1
2003/1/5 12:15,-1.1 ,2,77,2,20.0 ,2,77.0 ,2,13.5 ,2,,1